Overview Statistics Trail Chart Weather Telemetry Raw packets
 

This is the latest recevied weather packets stored in our database for station/object WD7OO. If no packets are shown the sender has not sent any weather packets the latest 10 day(s).

<< 34 35 36 37 38 39 40 >>
Time Temp. Humidity Pressure Rain* Wind** Luminosity Snow
1788393361 30° C 81% 1014.1 hPa 0 mm - 12 W/m² -
1788393056 30.56° C 79% 1013.9 hPa 0 mm - 15 W/m² -
1788392750 30.56° C 78% 1014 hPa 0 mm - 19 W/m² -
1788392449 31.11° C 77% 1014.1 hPa 0 mm - 23 W/m² -
1788392144 31.11° C 76% 1014 hPa 0 mm - 26 W/m² -
1788391839 31.11° C 76% 1014.2 hPa 0 mm - 29 W/m² -
1788391538 31.67° C 75% 1014.1 hPa 0 mm - 32 W/m² -
1788391232 31.67° C 74% 1014.3 hPa 0 mm - 36 W/m² -
1788390926 31.67° C 74% 1014.1 hPa 0 mm - 41 W/m² -
1788390621 31.67° C 74% 1014.1 hPa 0 mm - 43 W/m² -
1788390321 32.22° C 75% 1014.2 hPa 0 mm - 49 W/m² -
1788390015 32.22° C 72% 1014.2 hPa 0 mm - 51 W/m² -
1788389710 32.78° C 72% 1014.2 hPa 0 mm - 51 W/m² -
1788389410 32.78° C 71% 1014 hPa 0 mm - 53 W/m² -
1788389109 32.78° C 70% 1013.9 hPa 0 mm - 55 W/m² -
1788388805 32.78° C 70% 1014 hPa 0 mm - 58 W/m² -
1788388501 32.78° C 68% 1013.9 hPa 0 mm - 67 W/m² -
1788388200 33.33° C 67% 1014.3 hPa 0 mm - 73 W/m² -
1788387899 33.33° C 65% 1014.3 hPa 0 mm - 157 W/m² -
1788387598 33.89° C 65% 1014.1 hPa 0 mm - 168 W/m² -
1788387297 33.89° C 64% 1014.3 hPa 0 mm - 77 W/m² -
1788386988 33.89° C 63% 1014.2 hPa 0 mm - 191 W/m² -
1788386687 33.89° C 64% 1014.2 hPa 0 mm - 206 W/m² -
1788386382 33.89° C 62% 1014.2 hPa 0 mm - 221 W/m² -
1788386078 33.89° C 64% 1014.2 hPa 0 mm - 234 W/m² -

* Rain latest hour (hover to see other rain measurements)
** Current wind speed in m/s (hover to see current wind gust speed)